This demonstration page uses our WeatherBlox Daily Observations layout. Learn more.

Left ArrowRight Arrow

40.92501, -98.34201

Hourly Observations for May 2, 2020

Temp ( °F °C ) Dew Point ( °F °C ) Humidity (%) Winds ( mph kmh ) Pressure ( in mb ) Visibility ( mi km ) Precip ( " mm )
12:53 am 00:53 Clear 66 18.9 46 7.8 49 49 NNE 12 19 29.90 1012 10 16 0.00 0.00
1:53 am 01:53 Mostly Cloudy 64 17.8 46 7.8 52 52 N 9 15 29.96 1015 10 16 0.00 0.00
2:53 am 02:53 Mostly Clear 64 17.8 46 7.8 52 52 NE 17 28 29.92 1013 10 16 0.00 0.00
3:53 am 03:53 Clear 63 17.2 46 7.8 54 54 NE 3 6 29.95 1014 10 16 0.00 0.00
4:53 am 04:53 Partly Cloudy 61 16.1 47 8.3 60 60 N 12 19 29.98 1015 10 16 0.00 0.00
5:53 am 05:53 Cloudy 62 16.7 45 7.2 54 54 N 22 35 29.98 1015 10 16 0.00 0.00
6:53 am 06:53 Mostly Sunny 59 15 47 8.3 64 64 N 18 30 30.02 1017 10 16 0.00 0.00
7:53 am 07:53 Mostly Sunny 58 14.4 47 8.3 67 67 NNE 16 26 30.02 1017 10 16 0.00 0.00
8:53 am 08:53 Partly Cloudy 57 13.9 48 8.9 72 72 NNE 16 26 30.04 1017 10 16 0.00 0.00
9:53 am 09:53 Cloudy 59 15 48 8.9 67 67 NNE 12 19 30.09 1019 10 16 0.00 0.00
10:53 am 10:53 Sunny 64 17.8 49 9.4 58 58 N 17 28 30.08 1019 10 16 0.00 0.00
11:53 am 11:53 Mostly Cloudy 67 19.4 44 6.7 44 44 NNE 21 33 30.07 1018 10 16 0.00 0.00
12:53 pm 12:53 Cloudy 65 18.3 44 6.7 47 47 NNE 14 22 30.10 1019 10 16 0.00 0.00
1:53 pm 13:53 Cloudy 64 17.8 44 6.7 48 48 NNE 14 22 30.09 1019 10 16 0.00 0.00
2:53 pm 14:53 Cloudy 63 17.2 45 7.2 52 52 N 17 28 30.08 1019 10 16 0.00 0.00
3:53 pm 15:53 Mostly Sunny 66 18.9 43 6.1 43 43 N 16 26 30.06 1018 10 16 0.00 0.00
4:53 pm 16:53 Mostly Sunny 67 19.4 41 5 39 39 NNE 16 26 30.04 1017 10 16 0.00 0.00
5:53 pm 17:53 Cloudy 66 18.9 40 4.4 39 39 NE 10 17 30.03 1017 10 16 0.00 0.00
6:53 pm 18:53 Cloudy 65 18.3 39 3.9 39 39 NNE 14 22 30.05 1018 10 16 0.00 0.00
7:53 pm 19:53 Cloudy 63 17.2 40 4.4 43 43 NNE 9 15 30.06 1018 10 16 0.00 0.00
8:53 pm 20:53 Cloudy 59 15 42 5.6 54 54 N 5 7 30.08 1019 10 16 0.00 0.00
9:53 pm 21:53 Cloudy 59 15 43 6.1 56 56 NNW 5 7 30.09 1019 10 16 0.00 0.00
10:53 pm 22:53 Cloudy 58 14.4 44 6.7 60 60 NNW 6 9 30.09 1019 10 16 0.00 0.00
11:53 pm 23:53 Partly Cloudy 56 13.3 43 6.1 62 62 NW 3 6 30.07 1018 10 16 0.00 0.00

Powered by AerisWeather